Weather History for KONP - August, 2014

Change the Weather History Date:

Sunday, August 17, 2014

  Actual Average Record
Temperature  
Mean Temperature 56 °F -  
Max Temperature 60 °F 62 °F 69 °F (2003)
Min Temperature 53 °F 52 °F 42 °F (1999)
Degree Days  
Heating Degree Days 8    
Growing Degree Days 6 (Base 50)    
Moisture  
Dew Point 54 °F    
Average Humidity 93    
Maximum Humidity 100    
Minimum Humidity 82    
Precipitation  
Precipitation 0.00 in - - ()
Sea Level Pressure  
Sea Level Pressure 30.11 in    
Wind  
Wind Speed 8 mph (NNW)    
Max Wind Speed 24 mph    
Max Gust Speed 32 mph    
Visibility 4 miles    
Events Fog    
Averages and records for this station are not official NWS values.
T = Trace of Precipitation, MM = Missing Value Source: NWS Daily Summary

Daily Weather History Graph

Daily Weather History Graph

Search for Another Location

Airport or City:

Trip Planner

Search our weather history database for the weather conditions in past years. The results will help you decide how hot, cold, wet, or windy it might be!

Date:

Astronomy

Aug. 17, 2014 Rise Set
Actual Time 6:21 AM PDT 8:18 PM PDT
Civil Twilight 5:49 AM PDT 8:49 PM PDT
Nautical Twilight 5:11 AM PDT 9:28 PM PDT
Astronomical Twilight 4:28 AM PDT 10:10 PM PDT
Moon No Moon Rise 2:31 PM PDT (8/17)
Length of Visible Light 14h 59m
Length of Day
13h 57m
Waning Gibbous, 47% of the Moon is Illuminated
Aug 17
Waning Gibbous
Aug 25
New
Sep 2
First Quarter
Sep 8
Full
Sep 15
Last Quarter

Hourly Weather History & Observations

Time (PDT) Temp. Dew Point Humidity Pressure Visibility Wind Dir Wind Speed Gust Speed Precip Events Conditions
12:15 AM 55.4 °F 53.6 °F 94% 30.10 in 4.0 mi NNW 5.8 mph - N/A   Scattered Clouds
12:35 AM 55.4 °F 53.6 °F 94% 30.09 in 2.5 mi North 4.6 mph - N/A   Overcast
12:55 AM 55.4 °F 53.6 °F 94% 30.10 in 2.5 mi North 3.5 mph - N/A   Overcast
1:15 AM 53.6 °F 53.6 °F 100% 30.09 in 2.5 mi North 3.5 mph - N/A   Overcast
1:35 AM 55.4 °F 53.6 °F 94% 30.10 in 1.2 mi NNW 5.8 mph - N/A   Overcast
1:55 AM 53.6 °F 53.6 °F 100% 30.10 in 0.5 mi North 8.1 mph - N/A Fog Fog
2:15 AM 53.6 °F 53.6 °F 100% 30.10 in 0.5 mi North 6.9 mph - N/A Fog Fog
2:35 AM 53.6 °F 53.6 °F 100% 30.10 in 0.5 mi Calm Calm - N/A Fog Fog
2:55 AM 53.6 °F 53.6 °F 100% 30.10 in 0.2 mi North 3.5 mph - N/A Fog Fog
3:15 AM 53.6 °F 53.6 °F 100% 30.10 in 0.5 mi North 3.5 mph - N/A Fog Fog
3:35 AM 53.6 °F 53.6 °F 100% 30.10 in 0.5 mi North 3.5 mph - N/A Fog Fog
3:55 AM 53.6 °F 53.6 °F 100% 30.11 in 0.5 mi North 4.6 mph - N/A Fog Fog
4:15 AM 53.6 °F 53.6 °F 100% 30.11 in 0.5 mi North 5.8 mph - N/A Fog Fog
4:35 AM 53.6 °F 53.6 °F 100% 30.11 in 0.5 mi Calm Calm - N/A Fog Fog
4:55 AM 53.6 °F 53.6 °F 100% 30.11 in 0.2 mi Calm Calm - N/A Fog Fog
5:15 AM 53.6 °F 53.6 °F 100% 30.11 in 0.2 mi Calm Calm - N/A Fog Fog
5:35 AM 53.6 °F 53.6 °F 100% 30.11 in 0.2 mi North 3.5 mph - N/A Fog Fog
5:55 AM 53.6 °F 53.6 °F 100% 30.11 in 0.2 mi Calm Calm - N/A Fog Fog
6:15 AM 53.6 °F 53.6 °F 100% 30.11 in 0.5 mi Calm Calm - N/A Fog Fog
6:35 AM 53.6 °F 53.6 °F 100% 30.12 in 0.2 mi Calm Calm - N/A Fog Fog
6:55 AM 53.6 °F 53.6 °F 100% 30.12 in 0.2 mi Calm Calm - N/A Fog Fog
7:15 AM 53.6 °F 53.6 °F 100% 30.12 in 0.2 mi Calm Calm - N/A Fog Fog
7:35 AM 53.6 °F 53.6 °F 100% 30.13 in 0.2 mi NNW 5.8 mph - N/A Fog Fog
7:55 AM 53.6 °F 53.6 °F 100% 30.13 in 0.2 mi North 3.5 mph - N/A Fog Fog
8:15 AM 53.6 °F 53.6 °F 100% 30.14 in 0.2 mi North 6.9 mph - N/A Fog Fog
8:35 AM 53.6 °F 53.6 °F 100% 30.14 in 0.5 mi North 4.6 mph - N/A Fog Fog
9:15 AM 53.6 °F 53.6 °F 100% 30.14 in 1.5 mi NNW 3.5 mph - N/A   Overcast
9:35 AM 55.4 °F 55.4 °F 100% 30.14 in - NNW 4.6 mph - N/A   Overcast
9:55 AM 57.2 °F 57.2 °F 100% 30.14 in - NNW 5.8 mph - N/A   Overcast
10:15 AM 55.4 °F 55.4 °F 100% 30.14 in - NNW 8.1 mph - N/A   Unknown
10:35 AM 57.2 °F 55.4 °F 94% 30.15 in - NW 9.2 mph - N/A   Unknown
10:55 AM 57.2 °F 55.4 °F 94% 30.15 in - NNW 12.7 mph - N/A   Unknown
11:15 AM 59.0 °F 55.4 °F 88% 30.15 in - NNW 11.5 mph - N/A   Unknown
11:35 AM 60.8 °F 55.4 °F 82% 30.14 in - NNW 15.0 mph - N/A   Scattered Clouds
11:55 AM 59.0 °F 53.6 °F 82% 30.14 in 10.0 mi NNW 16.1 mph - N/A   Scattered Clouds
12:15 PM 59.0 °F 53.6 °F 82% 30.14 in 10.0 mi NNW 17.3 mph - N/A   Clear
12:35 PM 60.8 °F 55.4 °F 82% 30.14 in 10.0 mi NNW 15.0 mph - N/A   Clear
12:55 PM 60.8 °F 55.4 °F 82% 30.14 in 10.0 mi NNW 17.3 mph 24.2 mph N/A   Mostly Cloudy
1:15 PM 59.0 °F 53.6 °F 82% 30.14 in 3.0 mi NNW 20.7 mph 25.3 mph N/A   Haze
1:35 PM 59.0 °F 55.4 °F 88% 30.14 in 2.5 mi NNW 19.6 mph 25.3 mph N/A   Overcast
1:55 PM 60.8 °F 55.4 °F 82% 30.14 in 3.0 mi NNW 19.6 mph 26.5 mph N/A   Haze
2:15 PM 60.8 °F 55.4 °F 82% 30.14 in 2.0 mi NNW 18.4 mph 29.9 mph N/A   Haze
2:35 PM 59.0 °F 53.6 °F 82% 30.13 in 1.0 mi NNW 24.2 mph 32.2 mph N/A   Overcast
3:15 PM 59.0 °F 55.4 °F 88% 30.12 in 1.5 mi NNW 19.6 mph 28.8 mph N/A   Overcast
3:35 PM 59.0 °F 53.6 °F 82% 30.11 in 3.0 mi NNW 19.6 mph - N/A   Overcast
3:55 PM 59.0 °F 53.6 °F 82% 30.11 in 4.0 mi NNW 19.6 mph 25.3 mph N/A   Overcast
4:15 PM 57.2 °F 53.6 °F 88% 30.11 in 2.5 mi NNW 21.9 mph 25.3 mph N/A   Overcast
4:35 PM 59.0 °F 53.6 °F 82% 30.10 in 5.0 mi NNW 18.4 mph 25.3 mph N/A   Overcast
4:55 PM 59.0 °F 53.6 °F 82% 30.10 in 7.0 mi NNW 20.7 mph 28.8 mph N/A   Scattered Clouds
5:15 PM 59.0 °F 53.6 °F 82% 30.09 in 10.0 mi NNW 19.6 mph 24.2 mph N/A   Clear
5:35 PM 59.0 °F 53.6 °F 82% 30.08 in 7.0 mi North 20.7 mph 28.8 mph N/A   Clear
5:55 PM 57.2 °F 53.6 °F 88% 30.08 in 7.0 mi North 16.1 mph 25.3 mph N/A   Scattered Clouds
6:15 PM 57.2 °F 53.6 °F 88% 30.08 in 7.0 mi North 15.0 mph 21.9 mph N/A   Mostly Cloudy
6:35 PM 57.2 °F 53.6 °F 88% 30.08 in 7.0 mi North 12.7 mph 25.3 mph N/A   Mostly Cloudy
6:55 PM 57.2 °F 53.6 °F 88% 30.08 in 7.0 mi North 16.1 mph 25.3 mph N/A   Mostly Cloudy
7:15 PM 55.4 °F 53.6 °F 94% 30.07 in 7.0 mi North 15.0 mph 21.9 mph N/A   Scattered Clouds
7:35 PM 55.4 °F 53.6 °F 94% 30.07 in 7.0 mi North 16.1 mph 25.3 mph N/A   Clear
7:55 PM 55.4 °F 53.6 °F 94% 30.07 in 7.0 mi NNW 18.4 mph 24.2 mph N/A   Clear
8:15 PM 55.4 °F 53.6 °F 94% 30.08 in 7.0 mi NNW 11.5 mph 17.3 mph N/A   Clear
8:35 PM 55.4 °F 53.6 °F 94% 30.08 in 7.0 mi NNW 13.8 mph - N/A   Clear
8:55 PM 55.4 °F 53.6 °F 94% 30.08 in 7.0 mi NNW 13.8 mph - N/A   Clear
9:15 PM 55.4 °F 53.6 °F 94% 30.08 in 7.0 mi NNW 12.7 mph - N/A   Clear
9:35 PM 55.4 °F 53.6 °F 94% 30.08 in 7.0 mi NNW 11.5 mph - N/A   Clear
9:55 PM 55.4 °F 53.6 °F 94% 30.08 in 7.0 mi NNW 9.2 mph - N/A   Mostly Cloudy
10:15 PM 53.6 °F 51.8 °F 94% 30.08 in 7.0 mi North 8.1 mph - N/A   Mostly Cloudy
10:35 PM 53.6 °F 51.8 °F 94% 30.08 in 7.0 mi NNW 10.4 mph - N/A   Scattered Clouds
10:55 PM 53.6 °F 51.8 °F 94% 30.08 in 7.0 mi NNW 10.4 mph - N/A   Scattered Clouds
11:15 PM 53.6 °F 51.8 °F 94% 30.08 in 7.0 mi NNW 10.4 mph - N/A   Clear
11:35 PM 53.6 °F 51.8 °F 94% 30.08 in 7.0 mi North 8.1 mph - N/A   Clear
11:55 PM 53.6 °F 51.8 °F 94% 30.08 in 5.0 mi North 4.6 mph - N/A   Clear